sat.trackr.live / text

‹ back to catalog

STARLINK-30578

NORAD 58093 · 2023-160U

PAYLOAD ACTIVE UNKNOWN

§ Identity

Operator
Country
US
Launch date
2023-10-18
Launch site
AFETR
Launch vehicle
Mass (kg)
RCS (m²)

Purposes: comms

External: N2YO · Heavens-Above · Gunter

§ Orbital elements

Epoch: 2026-09-20T21:49:08.957280Z

Period
94.27 min
Inclination
42.9998°
Eccentricity
0.0000932
Mean motion
15.27576078 rev/d
Perigee alt
482.4 km
Apogee alt
483.7 km
Semi-major
6,861.2 km
B*
1.2410e-5
RAAN
55.2486°
Arg perigee
265.0307°
Mean anomaly
95.0439°
Rev number
16,280

§ Raw data

STARLINK-305781 58093U 23160U   26263.90913145  .00000080  00000+0  12410-4 0  99972 58093  42.9998  55.2486 0000932 265.0307  95.0439 15.27576078162800

JSON: /api/v1/satellites/58093 · /tle

For live sub-satellite position, see the globe view (requires WebGL).

§ Visibility from observer

Set your observer location to see the next 7 days of passes ≥ 10°. The values pass through the URL so the page stays shareable.

No JS? Fill the form by hand. The geolocation button needs JavaScript.